Flag for Kazakhstan Weather past 2 weeks in Shymkent, Kazakhstan

Now
46 °F

Partly sunny.


Feels Like: 45 °F
Forecast: 30 / 48 °F
Wind: 3 mph from Northwest

Location: Shymkent Airport

Current Time: Feb 27, 2015 at 5:43:07 PM

Latest Report: Feb 27, 2015 at 5:00 PM


Visibility: N/A

Pressure: 30.36 "Hg

Humidity: 50%

Dew point: 28 °F

Location of ShymkentLocation

Historic Weather in Shymkent — Graph

°F

Shymkent temperature yesterday

Maximum temperature yesterday: 43 °F (at 4:30 PM)
Minimum temperature yesterday: 34 °F (at 12:00 AM)
Average temperature yesterday: 37 °F

Past Weeks' High & Low Weather Summary

 TemperatureHumidityPressure
High61 °F (Feb 23, 3:30 PM)100% (Feb 12, 4:00 PM)30.39 "Hg (Feb 12, 4:00 PM)
Low28 °F (Feb 18, 4:30 AM)28% (Feb 19, 2:00 PM)29.83 "Hg (Feb 23, 4:00 PM)
Average42 °F83%30.12 "Hg
* Reported Feb 12 4:00 PM — Feb 27 4:30 PM, Shymkent, Weather by CustomWeather, © 2015

Note: Actual official high and low records may vary slightly from our data, if they occured in-between our weather recording intervals... More about our weather records

Advertising

Shymkent weather history for previous 24 hours

 ConditionsComfort  
Time TempWeatherWind HumidityBarometerVisibility
4:30 PM
Fri, Feb 27
46 °FPartly sunny.3 mph53%30.36 "HgN/A
4:00 PM48 °FPartly sunny.6 mph50%30.36 "HgN/A
3:30 PM48 °FPartly sunny.3 mph40%30.36 "HgN/A
3:00 PM46 °FPartly sunny.3 mph53%30.36 "HgN/A
2:30 PM48 °FMore clouds than sun.6 mph58%30.36 "HgN/A
2:00 PM48 °FMore clouds than sun.1 mph58%30.36 "HgN/A
1:30 PM46 °FMore clouds than sun.3 mph62%30.39 "HgN/A
1:00 PM46 °FMore clouds than sun.1 mph62%30.39 "HgN/A
12:30 PM43 °FMore clouds than sun.1 mph66%30.39 "HgN/A
12:00 PM43 °FMore clouds than sun.1 mph71%30.39 "HgN/A
11:30 AM43 °FMore clouds than sun.1 mph71%30.39 "HgN/A
11:00 AM43 °FMostly cloudy.3 mph71%30.39 "Hg5 mi
10:30 AM41 °FMostly cloudy.1 mph76%30.39 "Hg5 mi
9:30 AM37 °FSunny.No wind81%30.36 "Hg10 mi
9:00 AM37 °FSunny.No wind81%30.36 "Hg10 mi
8:30 AM36 °FSunny.1 mph81%30.33 "Hg10 mi
8:00 AM37 °FPassing clouds.3 mph75%30.33 "HgN/A
7:30 AM37 °FClear.3 mph70%30.33 "Hg10 mi
7:00 AM36 °FClear.No wind81%30.33 "Hg10 mi
6:30 AM36 °FClear.1 mph81%30.33 "Hg10 mi
6:00 AM37 °FClear.No wind75%30.33 "Hg10 mi
5:30 AM37 °FClear.No wind75%30.30 "Hg10 mi
5:00 AM37 °FClear.No wind75%30.30 "Hg10 mi
4:30 AM37 °FPassing clouds.3 mph70%30.30 "HgN/A
4:00 AM37 °FClear.6 mph70%30.30 "Hg10 mi
3:30 AM37 °FClear.3 mph70%30.30 "Hg10 mi
3:00 AM37 °FPassing clouds.3 mph70%30.33 "HgN/A
2:30 AM39 °FPassing clouds.6 mph65%30.30 "HgN/A
2:00 AM37 °FPassing clouds.6 mph70%30.30 "HgN/A
1:30 AM39 °FPassing clouds.6 mph65%30.30 "HgN/A
1:00 AM39 °FOvercast.10 mph65%30.30 "HgN/A
12:30 AM37 °FOvercast.10 mph70%30.30 "HgN/A
12:00 AM37 °FOvercast.10 mph70%30.30 "HgN/A
11:30 PM
Thu, Feb 26
37 °FOvercast.10 mph70%30.30 "HgN/A
11:00 PM37 °FOvercast.10 mph70%30.30 "HgN/A
10:30 PM39 °FOvercast.13 mph65%30.30 "HgN/A
10:00 PM39 °FOvercast.15 mph65%30.30 "HgN/A
9:30 PM39 °FOvercast.6 mph65%30.30 "HgN/A
9:00 PM39 °FOvercast.15 mph65%30.30 "HgN/A
8:30 PM39 °FOvercast.8 mph65%30.30 "HgN/A
8:00 PM39 °FOvercast.10 mph65%30.30 "HgN/A
7:30 PM39 °FOvercast.13 mph65%30.30 "HgN/A
7:00 PM39 °FOvercast.10 mph65%30.30 "HgN/A
6:30 PM39 °FOvercast.10 mph65%30.27 "HgN/A
6:00 PM41 °FOvercast.8 mph61%30.27 "HgN/A
5:30 PM41 °FOvercast.6 mph61%30.27 "HgN/A
5:00 PM43 °FOvercast.10 mph61%30.27 "HgN/A
Weather by CustomWeather, © 2015

See weather overviewHow to use our weather pages